Location: Ab? ar R?sh Ba?r?
(24.1861°N, 32.8847°E)
Time: 10:22:07
(UTC+00:00)

MOS 1-B Rocket - Pass Details

Date: 24 October 2021
Orbit: 890 x 1605 km, 99.0° (Epoch: 04 December)

Event Time Altitude Azimuth Distance (km) Brightness Sun altitude
Rises 15:37:46 0° 17° (NNE) 3,758 6.8 -6.0°
Reaches altitude 10° 15:40:23 10° 20° (NNE) 2,730 6.1 -6.6°
Maximum altitude 15:46:18 65° 101° (ESE) 1,000 3.9 -7.9°
Drops below altitude 10° 15:51:49 10° 183° (S) 2,547 6.4 -9.2°
Sets 15:54:11 0° 186° (S) 3,488 7.1 -9.7°
